| time (UTC) | temp C | wind direction | speed KPH | gust KPH | rain 1hr cm | rain 24hr cm | rain mn cm | humidity % | barometer mb |
| 20260507063025 | 19 | 317 | 3.2 | 14.5 | 0.00 | 0.03 | 0.00 | 87 | 1013.5 |
| 20260507062510 | 19 | 27 | 3.2 | 19.3 | 0.00 | 0.03 | 0.00 | 87 | 1013.3 |
| 20260507062010 | 19 | 341 | 3.2 | 19.3 | 0.00 | 0.03 | 0.00 | 87 | 1013.2 |
| 20260507061507 | 19 | 54 | 6.4 | 19.3 | 0.00 | 0.03 | 0.00 | 87 | 1013.5 |
| 20260507061006 | 19 | 319 | 4.8 | 16.1 | 0.00 | 0.03 | 0.00 | 87 | 1013.5 |
| 20260507060506 | 19 | 34 | 3.2 | 16.1 | 0.00 | 0.03 | 0.00 | 87 | 1013.2 |
| 20260507060017 | 19 | 9 | 1.6 | 16.1 | 0.00 | 0.03 | 0.00 | 87 | 1013.1 |
| 20260507055506 | 19 | 13 | 4.8 | 16.1 | 0.00 | 0.03 | 0.00 | 87 | 1013.0 |
| 20260507055011 | 19 | 9 | 3.2 | 14.5 | 0.00 | 0.03 | 0.00 | 87 | 1013.0 |
| 20260507054522 | 19 | 34 | 3.2 | 19.3 | 0.00 | 0.03 | 0.00 | 87 | 1013.1 |
| 20260507054013 | 19 | 349 | 6.4 | 19.3 | 0.00 | 0.03 | 0.00 | 87 | 1013.2 |
| 20260507053504 | 19 | 16 | 6.4 | 16.1 | 0.00 | 0.03 | 0.00 | 87 | 1013.2 |
| 20260507053010 | 19 | 16 | 4.8 | 16.1 | 0.00 | 0.03 | 0.00 | 87 | 1013.1 |
| 20260507052503 | 19 | 93 | 3.2 | 14.5 | 0.00 | 0.03 | 0.00 | 87 | 1012.9 |
| 20260507052008 | 19 | 30 | 3.2 | 16.1 | 0.00 | 0.03 | 0.00 | 87 | 1012.8 |
| 20260507051519 | 20 | 344 | 4.8 | 16.1 | 0.00 | 0.03 | 0.00 | 87 | 1012.8 |
| 20260507051007 | 20 | 29 | 6.4 | 16.1 | 0.00 | 0.03 | 0.00 | 87 | 1012.7 |
| 20260507050514 | 20 | 26 | 4.8 | 19.3 | 0.00 | 0.03 | 0.00 | 87 | 1012.8 |
| 20260507050025 | 20 | 350 | 4.8 | 19.3 | 0.00 | 0.03 | 0.00 | 87 | 1012.9 |
| 20260507045503 | 20 | 19 | 3.2 | 14.5 | 0.00 | 0.03 | 0.03 | 87 | 1012.8 |
| 20260507045003 | 20 | 321 | 4.8 | 14.5 | 0.00 | 0.03 | 0.03 | 87 | 1012.9 |
| 20260507044510 | 20 | 18 | 4.8 | 12.9 | 0.00 | 0.03 | 0.03 | 87 | 1012.8 |
| 20260507044008 | 20 | 316 | 1.6 | 14.5 | 0.00 | 0.03 | 0.03 | 86 | 1012.7 |
| 20260507043507 | 20 | 93 | 4.8 | 16.1 | 0.00 | 0.03 | 0.03 | 86 | 1012.7 |
| 20260507043020 | 20 | 325 | 1.6 | 16.1 | 0.00 | 0.03 | 0.03 | 86 | 1012.7 |
| 20260507042508 | 20 | 342 | 6.4 | 19.3 | 0.00 | 0.03 | 0.03 | 86 | 1012.6 |
| 20260507042010 | 20 | 309 | 6.4 | 19.3 | 0.00 | 0.03 | 0.03 | 86 | 1012.6 |
| 20260507041510 | 20 | 34 | 4.8 | 16.1 | 0.00 | 0.03 | 0.03 | 86 | 1012.7 |
| 20260507041008 | 20 | 325 | 1.6 | 16.1 | 0.00 | 0.03 | 0.03 | 86 | 1012.7 |
| 20260507040506 | 21 | 347 | 4.8 | 16.1 | 0.00 | 0.03 | 0.03 | 86 | 1012.7 |
| 20260507040017 | 21 | 342 | 3.2 | 12.9 | 0.00 | 0.03 | 0.03 | 85 | 1012.9 |
| 20260507035507 | 21 | 93 | 4.8 | 19.3 | 0.00 | 0.03 | 0.03 | 85 | 1012.9 |
| 20260507035011 | 21 | 51 | 3.2 | 19.3 | 0.00 | 0.03 | 0.03 | 85 | 1012.9 |
| 20260507034544 | 21 | 341 | 3.2 | 16.1 | 0.00 | 0.03 | 0.03 | 85 | 1012.8 |
| 20260507034009 | 21 | 323 | 6.4 | 16.1 | 0.00 | 0.03 | 0.03 | 85 | 1012.7 |
| 20260507033507 | 21 | 302 | 6.4 | 17.7 | 0.00 | 0.03 | 0.03 | 85 | 1012.6 |
| 20260507033010 | 21 | 19 | 8.0 | 17.7 | 0.00 | 0.03 | 0.03 | 85 | 1012.6 |
| 20260507032507 | 21 | 349 | 6.4 | 16.1 | 0.00 | 0.03 | 0.03 | 85 | 1012.4 |
| 20260507032007 | 21 | 63 | 4.8 | 19.3 | 0.00 | 0.03 | 0.03 | 85 | 1012.2 |
| 20260507031520 | 21 | 16 | 6.4 | 19.3 | 0.00 | 0.03 | 0.03 | 86 | 1012.1 |
| 20260507031007 | 21 | 30 | 6.4 | 20.9 | 0.00 | 0.03 | 0.03 | 86 | 1012.1 |
| 20260507030511 | 21 | 265 | 3.2 | 20.9 | 0.00 | 0.03 | 0.03 | 85 | 1012.0 |
| 20260507030027 | 21 | 332 | 4.8 | 20.9 | 0.00 | 0.03 | 0.03 | 85 | 1011.9 |
| 20260507025505 | 22 | 38 | 4.8 | 16.1 | 0.00 | 0.03 | 0.03 | 85 | 1011.9 |
| 20260507025004 | 22 | 29 | 4.8 | 16.1 | 0.00 | 0.03 | 0.03 | 85 | 1011.7 |
| 20260507024526 | 22 | 309 | 3.2 | 16.1 | 0.00 | 0.03 | 0.03 | 86 | 1011.7 |
| 20260507024008 | 22 | 291 | 6.4 | 17.7 | 0.00 | 0.03 | 0.03 | 86 | 1011.7 |
| 20260507023512 | 22 | 43 | 4.8 | 17.7 | 0.00 | 0.03 | 0.03 | 86 | 1011.5 |
| 20260507023022 | 22 | 22 | 4.8 | 17.7 | 0.00 | 0.03 | 0.03 | 85 | 1011.4 |
| 20260507022508 | 22 | 321 | 6.4 | 17.7 | 0.00 | 0.03 | 0.03 | 85 | 1011.2 |
| 20260507022015 | 22 | 25 | 4.8 | 17.7 | 0.00 | 0.03 | 0.03 | 86 | 1011.1 |
| 20260507021508 | 22 | 295 | 4.8 | 17.7 | 0.00 | 0.03 | 0.03 | 85 | 1011.1 |
| 20260507021007 | 22 | 334 | 6.4 | 17.7 | 0.00 | 0.03 | 0.03 | 85 | 1010.9 |
| 20260507020507 | 22 | 26 | 4.8 | 17.7 | 0.00 | 0.03 | 0.03 | 85 | 1010.8 |
| 20260507020016 | 22 | 33 | 8.0 | 17.7 | 0.00 | 0.03 | 0.03 | 85 | 1010.8 |
| 20260507015513 | 22 | 15 | 4.8 | 14.5 | 0.00 | 0.03 | 0.03 | 85 | 1010.9 |
| 20260507015008 | 22 | 27 | 4.8 | 20.9 | 0.00 | 0.03 | 0.03 | 86 | 1010.9 |
| 20260507014536 | 22 | 9 | 6.4 | 20.9 | 0.00 | 0.03 | 0.03 | 86 | 1010.7 |
| 20260507014009 | 22 | 298 | 6.4 | 16.1 | 0.00 | 0.03 | 0.03 | 86 | 1010.6 |
| 20260507013504 | 22 | 339 | 3.2 | 14.5 | 0.00 | 0.03 | 0.03 | 87 | 1010.6 |
| 20260507013013 | 22 | 18 | 4.8 | 14.5 | 0.00 | 0.03 | 0.03 | 86 | 1010.4 |
| 20260507012509 | 22 | 28 | 4.8 | 16.1 | 0.00 | 0.03 | 0.03 | 87 | 1010.4 |
| 20260507012008 | 22 | 338 | 4.8 | 17.7 | 0.00 | 0.03 | 0.03 | 87 | 1010.3 |
| 20260507011535 | 23 | 344 | 4.8 | 24.1 | 0.00 | 0.03 | 0.03 | 87 | 1010.1 |
| 20260507011008 | 23 | 9 | 6.4 | 24.1 | 0.00 | 0.03 | 0.03 | 87 | 1010.1 |
| 20260507010510 | 23 | 20 | 6.4 | 22.5 | 0.03 | 0.03 | 0.03 | 87 | 1010.1 |
| 20260507010030 | 23 | 254 | 8.0 | 22.5 | 0.03 | 0.03 | 0.03 | 87 | 1010.0 |
| 20260507005504 | 23 | 88 | 4.8 | 16.1 | 0.03 | 0.03 | 0.03 | 88 | 1009.9 |
| 20260507005011 | 23 | 44 | 3.2 | 12.9 | 0.03 | 0.03 | 0.03 | 88 | 1009.9 |
| 20260507004513 | 23 | 9 | 3.2 | 12.9 | 0.03 | 0.03 | 0.03 | 88 | 1009.7 |
| 20260507004009 | 23 | 9 | 3.2 | 8.0 | 0.03 | 0.03 | 0.03 | 88 | 1009.5 |
| 20260507003509 | 23 | 319 | 3.2 | 11.3 | 0.03 | 0.03 | 0.03 | 88 | 1009.5 |
| 20260507003023 | 24 | 31 | 3.2 | 14.5 | 0.03 | 0.03 | 0.03 | 88 | 1009.4 |
| 20260507002512 | 24 | 288 | 4.8 | 14.5 | 0.03 | 0.03 | 0.03 | 88 | 1009.4 |
| 20260507002011 | 25 | 321 | 1.6 | 12.9 | 0.03 | 0.03 | 0.03 | 87 | 1009.2 |
| 20260507001510 | 25 | 34 | 3.2 | 12.9 | 0.03 | 0.03 | 0.03 | 86 | 1009.1 |
| 20260507001005 | 25 | 316 | 1.6 | 17.7 | 0.03 | 0.03 | 0.03 | 86 | 1009.0 |
| 20260507000508 | 25 | 282 | 3.2 | 17.7 | 0.00 | 0.00 | 0.00 | 85 | 1008.8 |
| 20260507000019 | 27 | 255 | 6.4 | 16.1 | 0.00 | 0.00 | 0.00 | 84 | 1008.8 |
| 20260506235509 | 28 | 9 | 0.0 | 9.7 | 0.00 | 0.00 | 0.00 | 87 | 1008.6 |
| 20260506235009 | 28 | 31 | 1.6 | 9.7 | 0.00 | 0.00 | 0.00 | 86 | 1008.5 |
| 20260506234524 | 29 | 17 | 1.6 | 6.4 | 0.00 | 0.00 | 0.00 | 85 | 1008.5 |
| 20260506234011 | 30 | 34 | 1.6 | 6.4 | 0.00 | 0.00 | 0.00 | 83 | 1008.5 |
| 20260506233507 | 30 | 319 | 0.0 | 4.8 | 0.00 | 0.00 | 0.00 | 81 | 1008.5 |
| 20260506233014 | 30 | 247 | 0.0 | 6.4 | 0.00 | 0.00 | 0.00 | 81 | 1008.4 |
| 20260506232514 | 30 | 9 | 1.6 | 6.4 | 0.00 | 0.00 | 0.00 | 81 | 1008.3 |
| 20260506232008 | 30 | 183 | 1.6 | 6.4 | 0.00 | 0.00 | 0.00 | 81 | 1008.3 |
| 20260506231525 | 30 | 51 | 0.0 | 6.4 | 0.00 | 0.00 | 0.00 | 80 | 1008.2 |
| 20260506231014 | 30 | 236 | 0.0 | 6.4 | 0.00 | 0.00 | 0.00 | 80 | 1008.0 |
| 20260506230509 | 30 | 168 | 1.6 | 6.4 | 0.00 | 0.00 | 0.00 | 80 | 1008.1 |
| 20260506230031 | 30 | 51 | 0.0 | 8.0 | 0.00 | 0.00 | 0.00 | 80 | 1008.1 |
| 20260506225506 | 30 | 153 | 1.6 | 8.0 | 0.00 | 0.00 | 0.00 | 80 | 1008.1 |
| 20260506225006 | 30 | 294 | 1.6 | 9.7 | 0.00 | 0.00 | 0.00 | 80 | 1008.1 |
| 20260506224517 | 30 | 157 | 3.2 | 9.7 | 0.00 | 0.00 | 0.00 | 79 | 1008.1 |
| 20260506224007 | 31 | 61 | 1.6 | 9.7 | 0.00 | 0.00 | 0.00 | 77 | 1008.1 |
| 20260506223509 | 31 | 309 | 3.2 | 9.7 | 0.00 | 0.00 | 0.00 | 77 | 1008.1 |
| 20260506223026 | 31 | 184 | 1.6 | 9.7 | 0.00 | 0.00 | 0.00 | 77 | 1008.1 |
| 20260506222509 | 31 | 194 | 4.8 | 9.7 | 0.00 | 0.00 | 0.00 | 77 | 1008.1 |
| 20260506222015 | 31 | 165 | 3.2 | 9.7 | 0.00 | 0.00 | 0.00 | 77 | 1008.1 |
| 20260506221528 | 31 | 255 | 3.2 | 8.0 | 0.00 | 0.00 | 0.00 | 77 | 1008.0 |
| 20260506221015 | 31 | 186 | 1.6 | 8.0 | 0.00 | 0.00 | 0.00 | 78 | 1008.0 |
| 20260506220510 | 31 | 273 | 3.2 | 9.7 | 0.00 | 0.00 | 0.00 | 77 | 1008.0 |
| 20260506220032 | 32 | 196 | 3.2 | 11.3 | 0.00 | 0.00 | 0.00 | 78 | 1007.8 |
| 20260506215510 | 32 | 267 | 3.2 | 11.3 | 0.00 | 0.00 | 0.00 | 79 | 1007.8 |
| 20260506215010 | 31 | 217 | 4.8 | 14.5 | 0.00 | 0.00 | 0.00 | 80 | 1007.8 |
| 20260506214515 | 31 | 273 | 1.6 | 14.5 | 0.00 | 0.00 | 0.00 | 81 | 1008.0 |
| 20260506214002 | 31 | 166 | 3.2 | 14.5 | 0.00 | 0.00 | 0.00 | 79 | 1008.0 |
| 20260506213506 | 31 | 146 | 3.2 | 11.3 | 0.00 | 0.00 | 0.00 | 79 | 1008.1 |
| 20260506213016 | 30 | 250 | 1.6 | 11.3 | 0.00 | 0.00 | 0.00 | 80 | 1008.1 |
| 20260506212506 | 31 | 259 | 3.2 | 14.5 | 0.00 | 0.00 | 0.00 | 80 | 1007.9 |
| 20260506212010 | 31 | 325 | 6.4 | 14.5 | 0.00 | 0.00 | 0.00 | 80 | 1008.0 |
| 20260506211524 | 31 | 237 | 3.2 | 16.1 | 0.00 | 0.00 | 0.00 | 80 | 1008.0 |
| 20260506211010 | 31 | 186 | 4.8 | 16.1 | 0.00 | 0.00 | 0.00 | 81 | 1008.1 |
| 20260506210507 | 31 | 236 | 3.2 | 17.7 | 0.00 | 0.00 | 0.00 | 81 | 1008.2 |
| 20260506210013 | 31 | 193 | 3.2 | 19.3 | 0.00 | 0.00 | 0.00 | 80 | 1008.2 |
| 20260506205508 | 31 | 173 | 6.4 | 19.3 | 0.00 | 0.00 | 0.00 | 78 | 1008.3 |
| 20260506205006 | 31 | 178 | 8.0 | 17.7 | 0.00 | 0.00 | 0.00 | 79 | 1008.4 |
| 20260506204521 | 31 | 182 | 9.7 | 17.7 | 0.00 | 0.00 | 0.00 | 80 | 1008.4 |
| 20260506204010 | 31 | 165 | 3.2 | 12.9 | 0.00 | 0.00 | 0.00 | 81 | 1008.4 |
| 20260506203517 | 30 | 229 | 3.2 | 12.9 | 0.00 | 0.00 | 0.00 | 81 | 1008.5 |
| 20260506203027 | 30 | 227 | 3.2 | 19.3 | 0.00 | 0.00 | 0.00 | 81 | 1008.5 |
| 20260506202503 | 30 | 159 | 4.8 | 19.3 | 0.00 | 0.00 | 0.00 | 82 | 1008.6 |
| 20260506202007 | 30 | 159 | 8.0 | 17.7 | 0.00 | 0.00 | 0.00 | 82 | 1008.6 |
| 20260506201512 | 30 | 213 | 8.0 | 17.7 | 0.00 | 0.00 | 0.00 | 82 | 1008.7 |
| 20260506201006 | 30 | 167 | 3.2 | 19.3 | 0.00 | 0.00 | 0.00 | 83 | 1008.7 |
| 20260506200509 | 30 | 194 | 6.4 | 19.3 | 0.00 | 0.00 | 0.00 | 81 | 1008.7 |
| 20260506200021 | 30 | 184 | 4.8 | 17.7 | 0.00 | 0.00 | 0.00 | 80 | 1008.7 |
| 20260506195510 | 30 | 157 | 8.0 | 16.1 | 0.00 | 0.00 | 0.00 | 79 | 1008.7 |
| 20260506195010 | 31 | 186 | 6.4 | 14.5 | 0.00 | 0.00 | 0.00 | 78 | 1008.8 |
| 20260506194544 | 31 | 205 | 6.4 | 19.3 | 0.00 | 0.00 | 0.00 | 79 | 1008.7 |
| 20260506194006 | 31 | 137 | 4.8 | 19.3 | 0.00 | 0.00 | 0.00 | 79 | 1008.8 |
| 20260506193505 | 31 | 193 | 6.4 | 17.7 | 0.00 | 0.00 | 0.00 | 80 | 1008.8 |
| 20260506193015 | 31 | 171 | 6.4 | 16.1 | 0.00 | 0.00 | 0.00 | 80 | 1008.9 |
| 20260506192507 | 31 | 142 | 6.4 | 16.1 | 0.00 | 0.00 | 0.00 | 79 | 1008.9 |
| 20260506192013 | 31 | 173 | 3.2 | 12.9 | 0.00 | 0.00 | 0.00 | 82 | 1008.9 |
| 20260506191522 | 30 | 202 | 4.8 | 19.3 | 0.00 | 0.00 | 0.00 | 83 | 1009.1 |
| 20260506191008 | 30 | 171 | 6.4 | 19.3 | 0.00 | 0.00 | 0.00 | 81 | 1009.1 |
| 20260506190505 | 30 | 173 | 4.8 | 17.7 | 0.00 | 0.00 | 0.00 | 82 | 1009.1 |
| 20260506190008 | 30 | 139 | 6.4 | 17.7 | 0.00 | 0.00 | 0.00 | 81 | 1009.1 |
| 20260506185506 | 30 | 178 | 8.0 | 17.7 | 0.00 | 0.00 | 0.00 | 83 | 1009.2 |
| 20260506185011 | 30 | 178 | 4.8 | 19.3 | 0.00 | 0.00 | 0.00 | 84 | 1009.3 |
| 20260506184525 | 30 | 139 | 3.2 | 19.3 | 0.00 | 0.00 | 0.00 | 83 | 1009.3 |
| 20260506184009 | 29 | 202 | 4.8 | 11.3 | 0.00 | 0.00 | 0.00 | 82 | 1009.4 |
| 20260506183511 | 30 | 161 | 3.2 | 16.1 | 0.00 | 0.00 | 0.00 | 82 | 1009.4 |
| 20260506183025 | 30 | 178 | 3.2 | 16.1 | 0.00 | 0.00 | 0.00 | 82 | 1009.4 |
| 20260506182503 | 30 | 161 | 3.2 | 12.9 | 0.00 | 0.00 | 0.00 | 83 | 1009.5 |
| 20260506182005 | 30 | 153 | 1.6 | 12.9 | 0.00 | 0.00 | 0.00 | 83 | 1009.6 |
| 20260506181514 | 30 | 159 | 6.4 | 12.9 | 0.00 | 0.00 | 0.00 | 84 | 1009.8 |
| 20260506181007 | 29 | 170 | 3.2 | 8.0 | 0.00 | 0.00 | 0.00 | 84 | 1009.8 |
| 20260506180507 | 29 | 196 | 3.2 | 11.3 | 0.00 | 0.00 | 0.00 | 85 | 1010.0 |
| 20260506180022 | 29 | 242 | 3.2 | 11.3 | 0.00 | 0.00 | 0.00 | 84 | 1010.1 |
| 20260506175508 | 29 | 51 | 3.2 | 8.0 | 0.00 | 0.00 | 0.00 | 85 | 1010.2 |
| 20260506175010 | 28 | 124 | 1.6 | 12.9 | 0.00 | 0.00 | 0.00 | 85 | 1010.4 |
| 20260506174509 | 28 | 247 | 1.6 | 12.9 | 0.00 | 0.00 | 0.00 | 85 | 1010.4 |
| 20260506174010 | 28 | 157 | 1.6 | 8.0 | 0.00 | 0.00 | 0.00 | 86 | 1010.5 |
| 20260506173505 | 28 | 247 | 3.2 | 8.0 | 0.00 | 0.00 | 0.00 | 86 | 1010.6 |
| 20260506173018 | 28 | 137 | 1.6 | 9.7 | 0.00 | 0.00 | 0.00 | 86 | 1010.8 |
| 20260506172507 | 28 | 161 | 3.2 | 9.7 | 0.00 | 0.00 | 0.00 | 86 | 1010.7 |
| 20260506172008 | 28 | 153 | 3.2 | 11.3 | 0.00 | 0.00 | 0.00 | 86 | 1010.8 |
| 20260506171525 | 28 | 190 | 1.6 | 11.3 | 0.00 | 0.00 | 0.00 | 85 | 1010.7 |
| 20260506171009 | 28 | 157 | 1.6 | 9.7 | 0.00 | 0.00 | 0.00 | 86 | 1010.9 |
| 20260506170507 | 28 | 193 | 1.6 | 9.7 | 0.00 | 0.00 | 0.00 | 86 | 1010.8 |
| 20260506170011 | 28 | 168 | 4.8 | 14.5 | 0.00 | 0.00 | 0.00 | 86 | 1010.9 |
| 20260506165510 | 28 | 165 | 3.2 | 14.5 | 0.00 | 0.00 | 0.00 | 87 | 1010.8 |
| 20260506165013 | 28 | 144 | 6.4 | 12.9 | 0.00 | 0.00 | 0.00 | 88 | 1010.9 |
| 20260506164524 | 27 | 148 | 1.6 | 9.7 | 0.00 | 0.00 | 0.00 | 88 | 1010.8 |
| 20260506164011 | 27 | 178 | 3.2 | 11.3 | 0.00 | 0.00 | 0.00 | 88 | 1010.7 |
| 20260506163510 | 27 | 146 | 4.8 | 16.1 | 0.00 | 0.00 | 0.00 | 88 | 1010.7 |
| 20260506163027 | 27 | 175 | 6.4 | 16.1 | 0.00 | 0.00 | 0.00 | 87 | 1010.8 |
| 20260506162507 | 27 | 155 | 4.8 | 19.3 | 0.00 | 0.00 | 0.00 | 87 | 1010.6 |
| 20260506162010 | 27 | 193 | 4.8 | 19.3 | 0.00 | 0.00 | 0.00 | 87 | 1010.6 |
| 20260506161516 | 27 | 199 | 8.0 | 14.5 | 0.00 | 0.00 | 0.00 | 87 | 1010.4 |
| 20260506161011 | 27 | 198 | 3.2 | 14.5 | 0.00 | 0.00 | 0.00 | 87 | 1010.4 |
| 20260506160507 | 27 | 157 | 4.8 | 14.5 | 0.00 | 0.00 | 0.00 | 87 | 1010.4 |
| 20260506160021 | 27 | 171 | 4.8 | 14.5 | 0.00 | 0.00 | 0.00 | 87 | 1010.3 |
| 20260506155508 | 27 | 171 | 4.8 | 11.3 | 0.00 | 0.00 | 0.00 | 87 | 1010.3 |
| 20260506155009 | 27 | 165 | 3.2 | 14.5 | 0.00 | 0.00 | 0.00 | 87 | 1010.4 |
| 20260506154530 | 27 | 200 | 4.8 | 14.5 | 0.00 | 0.00 | 0.00 | 88 | 1010.3 |
| 20260506154006 | 27 | 163 | 4.8 | 16.1 | 0.00 | 0.00 | 0.00 | 87 | 1010.3 |
| 20260506153510 | 27 | 238 | 4.8 | 16.1 | 0.00 | 0.00 | 0.00 | 87 | 1010.4 |
| 20260506153016 | 27 | 160 | 3.2 | 16.1 | 0.00 | 0.00 | 0.00 | 88 | 1010.3 |
| 20260506152507 | 26 | 205 | 4.8 | 9.7 | 0.00 | 0.00 | 0.00 | 89 | 1010.2 |
| 20260506152011 | 26 | 191 | 1.6 | 9.7 | 0.00 | 0.00 | 0.00 | 89 | 1010.0 |
| 20260506151526 | 26 | 170 | 1.6 | 11.3 | 0.00 | 0.00 | 0.00 | 89 | 1010.0 |
| 20260506151012 | 26 | 148 | 1.6 | 11.3 | 0.00 | 0.00 | 0.00 | 89 | 1009.8 |
| 20260506150511 | 26 | 178 | 3.2 | 12.9 | 0.00 | 0.00 | 0.00 | 89 | 1009.8 |
| 20260506150014 | 26 | 171 | 4.8 | 12.9 | 0.00 | 0.00 | 0.00 | 90 | 1009.9 |
| 20260506145512 | 26 | 146 | 4.8 | 11.3 | 0.00 | 0.00 | 0.00 | 90 | 1009.8 |
| 20260506145010 | 26 | 157 | 3.2 | 9.7 | 0.00 | 0.00 | 0.00 | 91 | 1009.7 |
| 20260506144536 | 26 | 9 | 1.6 | 12.9 | 0.00 | 0.00 | 0.00 | 91 | 1009.7 |
| 20260506144007 | 26 | 168 | 4.8 | 14.5 | 0.00 | 0.00 | 0.00 | 91 | 1009.6 |
| 20260506143510 | 26 | 146 | 3.2 | 16.1 | 0.00 | 0.00 | 0.00 | 92 | 1009.4 |
| 20260506143028 | 26 | 166 | 4.8 | 16.1 | 0.00 | 0.00 | 0.00 | 92 | 1009.2 |
| 20260506142514 | 25 | 187 | 4.8 | 17.7 | 0.00 | 0.00 | 0.00 | 93 | 1009.2 |
| 20260506142008 | 25 | 196 | 4.8 | 17.7 | 0.00 | 0.00 | 0.00 | 93 | 1009.2 |
| 20260506141520 | 25 | 225 | 4.8 | 16.1 | 0.00 | 0.00 | 0.00 | 94 | 1009.4 |
| 20260506141014 | 25 | 165 | 3.2 | 11.3 | 0.00 | 0.00 | 0.00 | 94 | 1009.4 |
| 20260506140508 | 25 | 142 | 3.2 | 14.5 | 0.00 | 0.00 | 0.00 | 94 | 1009.4 |
| 20260506140036 | 25 | 164 | 6.4 | 14.5 | 0.00 | 0.00 | 0.00 | 94 | 1009.5 |
| 20260506135509 | 25 | 137 | 4.8 | 12.9 | 0.00 | 0.00 | 0.00 | 94 | 1009.5 |
| 20260506135014 | 25 | 165 | 6.4 | 12.9 | 0.00 | 0.00 | 0.00 | 94 | 1009.5 |
| 20260506134533 | 25 | 175 | 4.8 | 11.3 | 0.00 | 0.00 | 0.00 | 95 | 1009.6 |
| 20260506134006 | 24 | 200 | 3.2 | 9.7 | 0.00 | 0.00 | 0.00 | 95 | 1009.6 |
| 20260506133509 | 24 | 143 | 1.6 | 11.3 | 0.00 | 0.00 | 0.00 | 95 | 1009.5 |
| 20260506133023 | 24 | 205 | 3.2 | 11.3 | 0.00 | 0.00 | 0.00 | 95 | 1009.6 |
| 20260506132514 | 24 | 143 | 3.2 | 11.3 | 0.00 | 0.00 | 0.00 | 95 | 1009.6 |
| 20260506132012 | 24 | 126 | 1.6 | 8.0 | 0.00 | 0.00 | 0.00 | 95 | 1009.7 |
| 20260506131533 | 24 | 132 | 3.2 | 11.3 | 0.00 | 0.00 | 0.00 | 95 | 1009.7 |
| 20260506131012 | 23 | 178 | 1.6 | 11.3 | 0.00 | 0.00 | 0.00 | 95 | 1009.7 |
| 20260506130510 | 23 | 175 | 3.2 | 11.3 | 0.00 | 0.00 | 0.00 | 95 | 1009.7 |
| 20260506130018 | 23 | 214 | 3.2 | 9.7 | 0.00 | 0.00 | 0.00 | 95 | 1009.7 |
| 20260506125508 | 23 | 170 | 3.2 | 9.7 | 0.00 | 0.00 | 0.00 | 95 | 1009.8 |
| 20260506125010 | 23 | 153 | 3.2 | 9.7 | 0.00 | 0.00 | 0.00 | 95 | 1009.7 |
| 20260506124527 | 23 | 140 | 3.2 | 9.7 | 0.00 | 0.00 | 0.00 | 95 | 1009.6 |
| 20260506124010 | 23 | 221 | 1.6 | 6.4 | 0.00 | 0.00 | 0.00 | 95 | 1009.6 |
| 20260506123503 | 23 | 178 | 1.6 | 8.0 | 0.00 | 0.00 | 0.00 | 95 | 1009.6 |
| 20260506123015 | 23 | 148 | 1.6 | 8.0 | 0.00 | 0.00 | 0.00 | 95 | 1009.7 |
| 20260506122506 | 23 | 93 | 1.6 | 8.0 | 0.00 | 0.00 | 0.00 | 95 | 1009.5 |
| 20260506122007 | 23 | 137 | 0.0 | 8.0 | 0.00 | 0.00 | 0.00 | 95 | 1009.5 |
| 20260506121521 | 23 | 178 | 1.6 | 6.4 | 0.00 | 0.00 | 0.00 | 95 | 1009.4 |
| 20260506121006 | 23 | 193 | 1.6 | 6.4 | 0.00 | 0.00 | 0.00 | 95 | 1009.4 |
| 20260506120507 | 23 | 171 | 1.6 | 6.4 | 0.00 | 0.00 | 0.00 | 94 | 1009.4 |
| 20260506120032 | 23 | 192 | 1.6 | 6.4 | 0.00 | 0.00 | 0.00 | 94 | 1009.3 |
| 20260506115509 | 23 | 221 | 1.6 | 4.8 | 0.00 | 0.00 | 0.00 | 94 | 1009.3 |
| 20260506115003 | 23 | 153 | 1.6 | 11.3 | 0.00 | 0.00 | 0.00 | 94 | 1009.2 |
| 20260506114519 | 23 | 165 | 1.6 | 11.3 | 0.00 | 0.00 | 0.00 | 94 | 1009.2 |
| 20260506114012 | 23 | 161 | 1.6 | 8.0 | 0.00 | 0.00 | 0.00 | 94 | 1009.2 |
| 20260506113507 | 23 | 221 | 1.6 | 8.0 | 0.00 | 0.00 | 0.00 | 94 | 1009.0 |
| 20260506113030 | 23 | 196 | 3.2 | 11.3 | 0.00 | 0.00 | 0.00 | 94 | 1009.0 |
| 20260506112510 | 23 | 221 | 3.2 | 11.3 | 0.00 | 0.00 | 0.00 | 94 | 1009.0 |
| 20260506112009 | 23 | 178 | 4.8 | 11.3 | 0.00 | 0.00 | 0.00 | 94 | 1008.9 |
| 20260506111507 | 23 | 169 | 3.2 | 8.0 | 0.00 | 0.00 | 0.00 | 94 | 1008.8 |
| 20260506111004 | 23 | 168 | 1.6 | 8.0 | 0.00 | 0.00 | 0.00 | 94 | 1008.7 |
| 20260506110511 | 23 | 153 | 1.6 | 8.0 | 0.00 | 0.00 | 0.00 | 94 | 1008.7 |
| 20260506110019 | 23 | 148 | 1.6 | 8.0 | 0.00 | 0.00 | 0.00 | 94 | 1008.7 |
| 20260506105507 | 23 | 190 | 1.6 | 8.0 | 0.00 | 0.00 | 0.00 | 94 | 1008.6 |
| 20260506105008 | 23 | 51 | 1.6 | 8.0 | 0.00 | 0.00 | 0.00 | 94 | 1008.6 |
| 20260506104528 | 23 | 186 | 3.2 | 8.0 | 0.00 | 0.00 | 0.00 | 94 | 1008.5 |
| 20260506104009 | 23 | 196 | 3.2 | 8.0 | 0.00 | 0.00 | 0.00 | 94 | 1008.5 |
| 20260506103503 | 23 | 178 | 3.2 | 8.0 | 0.00 | 0.00 | 0.00 | 93 | 1008.6 |
| 20260506103010 | 23 | 170 | 1.6 | 8.0 | 0.00 | 0.00 | 0.00 | 93 | 1008.6 |
| 20260506102507 | 23 | 148 | 1.6 | 8.0 | 0.00 | 0.00 | 0.00 | 93 | 1008.6 |
| 20260506102007 | 23 | 360 | 3.2 | 9.7 | 0.00 | 0.00 | 0.00 | 93 | 1008.6 |
| 20260506101524 | 23 | 178 | 3.2 | 9.7 | 0.00 | 0.00 | 0.00 | 93 | 1008.6 |
| 20260506101012 | 23 | 190 | 3.2 | 9.7 | 0.00 | 0.00 | 0.00 | 93 | 1008.5 |
| 20260506100514 | 23 | 169 | 3.2 | 9.7 | 0.00 | 0.00 | 0.00 | 93 | 1008.4 |
| 20260506100028 | 23 | 221 | 3.2 | 11.3 | 0.00 | 0.00 | 0.00 | 93 | 1008.4 |
| 20260506095504 | 23 | 159 | 4.8 | 11.3 | 0.00 | 0.00 | 0.00 | 93 | 1008.4 |
| 20260506095007 | 23 | 196 | 4.8 | 11.3 | 0.00 | 0.00 | 0.00 | 93 | 1008.3 |
| 20260506094515 | 23 | 178 | 4.8 | 9.7 | 0.00 | 0.00 | 0.00 | 93 | 1008.2 |
| 20260506094008 | 23 | 146 | 3.2 | 9.7 | 0.00 | 0.00 | 0.00 | 93 | 1008.3 |
| 20260506093511 | 23 | 178 | 4.8 | 9.7 | 0.00 | 0.00 | 0.00 | 93 | 1008.2 |
| 20260506093031 | 23 | 171 | 4.8 | 12.9 | 0.00 | 0.00 | 0.00 | 93 | 1008.2 |
| 20260506092509 | 23 | 175 | 6.4 | 14.5 | 0.00 | 0.00 | 0.00 | 92 | 1008.2 |
| 20260506092014 | 23 | 164 | 6.4 | 19.3 | 0.00 | 0.00 | 0.00 | 92 | 1008.3 |
| 20260506091528 | 23 | 155 | 6.4 | 19.3 | 0.00 | 0.00 | 0.00 | 93 | 1008.2 |
| 20260506091007 | 23 | 182 | 8.0 | 17.7 | 0.00 | 0.00 | 0.00 | 92 | 1008.2 |
| 20260506090513 | 23 | 161 | 4.8 | 17.7 | 0.00 | 0.00 | 0.00 | 92 | 1008.3 |
| 20260506090018 | 23 | 155 | 6.4 | 17.7 | 0.00 | 0.00 | 0.00 | 92 | 1008.4 |
| 20260506085513 | 24 | 171 | 6.4 | 11.3 | 0.00 | 0.00 | 0.00 | 92 | 1008.4 |
| 20260506085006 | 24 | 182 | 4.8 | 12.9 | 0.00 | 0.00 | 0.00 | 92 | 1008.4 |
| 20260506084532 | 24 | 211 | 4.8 | 14.5 | 0.00 | 0.00 | 0.00 | 92 | 1008.4 |
| 20260506084008 | 24 | 182 | 8.0 | 14.5 | 0.00 | 0.00 | 0.00 | 92 | 1008.3 |
| 20260506083508 | 24 | 150 | 4.8 | 14.5 | 0.00 | 0.00 | 0.00 | 92 | 1008.4 |
| 20260506083032 | 24 | 187 | 3.2 | 16.1 | 0.00 | 0.00 | 0.00 | 92 | 1008.6 |
| 20260506082511 | 24 | 193 | 6.4 | 16.1 | 0.00 | 0.00 | 0.00 | 92 | 1008.5 |
| 20260506082007 | 24 | 159 | 4.8 | 17.7 | 0.00 | 0.00 | 0.00 | 92 | 1008.5 |
| 20260506081525 | 24 | 192 | 3.2 | 17.7 | 0.00 | 0.00 | 0.00 | 92 | 1008.6 |
| 20260506081011 | 24 | 167 | 6.4 | 17.7 | 0.00 | 0.00 | 0.00 | 92 | 1008.6 |
| 20260506080509 | 24 | 171 | 4.8 | 11.3 | 0.00 | 0.00 | 0.00 | 92 | 1008.5 |
| 20260506073507 | 24 | 188 | 6.4 | 19.3 | 0.00 | 0.00 | 0.00 | 92 | 1008.9 |
| 20260506073024 | 24 | 166 | 6.4 | 14.5 | 0.00 | 0.00 | 0.00 | 92 | 1008.8 |
| 20260506072509 | 24 | 165 | 6.4 | 16.1 | 0.00 | 0.00 | 0.00 | 92 | 1008.9 |
| 20260506072016 | 24 | 183 | 3.2 | 16.1 | 0.00 | 0.00 | 0.00 | 92 | 1008.9 |
| 20260506071527 | 24 | 194 | 3.2 | 14.5 | 0.00 | 0.00 | 0.00 | 92 | 1008.9 |
| 20260506071004 | 24 | 157 | 6.4 | 14.5 | 0.00 | 0.00 | 0.00 | 92 | 1008.9 |
| 20260506070510 | 24 | 194 | 4.8 | 11.3 | 0.00 | 0.00 | 0.00 | 92 | 1009.1 |